Year,Month,Day,Hour,Minute,Value (Times are PST for temperature in C)
2021,08,13,00,00,23.20
2021,08,13,00,01,23.20
2021,08,13,00,02,23.20
2021,08,13,00,03,23.10
2021,08,13,00,04,23.10
2021,08,13,00,05,23.00
2021,08,13,00,06,22.90
2021,08,13,00,07,22.90
2021,08,13,00,08,22.80
2021,08,13,00,09,22.80
2021,08,13,00,10,22.80
2021,08,13,00,11,22.80
2021,08,13,00,12,22.70
2021,08,13,00,13,22.70
2021,08,13,00,14,22.70
2021,08,13,00,15,22.60
2021,08,13,00,16,22.60
2021,08,13,00,17,22.60
2021,08,13,00,18,22.60
2021,08,13,00,19,22.60
2021,08,13,00,20,22.60
2021,08,13,00,21,22.60
2021,08,13,00,22,22.60
2021,08,13,00,23,22.60
2021,08,13,00,24,22.50
2021,08,13,00,25,22.50
2021,08,13,00,26,22.50
2021,08,13,00,27,22.50
2021,08,13,00,28,22.50
2021,08,13,00,29,22.50
2021,08,13,00,30,22.50
2021,08,13,00,31,22.50
2021,08,13,00,32,22.50
2021,08,13,00,33,22.50
2021,08,13,00,34,22.60
2021,08,13,00,35,22.60
2021,08,13,00,36,22.60
2021,08,13,00,37,22.60
2021,08,13,00,38,22.60
2021,08,13,00,39,22.60
2021,08,13,00,40,22.60
2021,08,13,00,41,22.60
2021,08,13,00,42,22.60
2021,08,13,00,43,22.50
2021,08,13,00,44,22.50
2021,08,13,00,45,22.40
2021,08,13,00,46,22.30
2021,08,13,00,47,22.30
2021,08,13,00,48,22.20
2021,08,13,00,49,22.20
2021,08,13,00,50,22.20
2021,08,13,00,51,22.20
2021,08,13,00,52,22.20
2021,08,13,00,53,22.10
2021,08,13,00,54,22.10
2021,08,13,00,55,22.10
2021,08,13,00,56,22.10
2021,08,13,00,57,22.00
2021,08,13,00,58,22.00
2021,08,13,00,59,22.00
2021,08,13,01,00,22.00
2021,08,13,01,01,21.90
2021,08,13,01,02,21.90
2021,08,13,01,03,21.80
2021,08,13,01,04,21.80
2021,08,13,01,05,21.80
2021,08,13,01,06,21.70
2021,08,13,01,07,21.70
2021,08,13,01,08,21.70
2021,08,13,01,09,21.70
2021,08,13,01,10,21.70
2021,08,13,01,11,21.60
2021,08,13,01,12,21.60
2021,08,13,01,13,21.60
2021,08,13,01,14,21.60
2021,08,13,01,15,21.60
2021,08,13,01,16,21.60
2021,08,13,01,17,21.60
2021,08,13,01,18,21.60
2021,08,13,01,19,21.60
2021,08,13,01,20,21.60
2021,08,13,01,21,21.60
2021,08,13,01,22,21.60
2021,08,13,01,23,21.60
2021,08,13,01,24,21.60
2021,08,13,01,25,21.60
2021,08,13,01,26,21.60
2021,08,13,01,27,21.60
2021,08,13,01,28,21.70
2021,08,13,01,29,21.80
2021,08,13,01,30,21.80
2021,08,13,01,31,21.80
2021,08,13,01,32,21.80
2021,08,13,01,33,21.80
2021,08,13,01,34,21.80
2021,08,13,01,35,21.80
2021,08,13,01,36,21.80
2021,08,13,01,37,21.80
2021,08,13,01,38,21.70
2021,08,13,01,39,21.70
2021,08,13,01,40,21.70
2021,08,13,01,41,21.70
2021,08,13,01,42,21.70
2021,08,13,01,43,21.70
2021,08,13,01,44,21.70
2021,08,13,01,45,21.70
2021,08,13,01,46,21.70
2021,08,13,01,47,21.70
2021,08,13,01,48,21.70
2021,08,13,01,49,21.70
2021,08,13,01,50,21.80
2021,08,13,01,51,21.80
2021,08,13,01,52,21.90
2021,08,13,01,53,21.90
2021,08,13,01,54,22.00
2021,08,13,01,55,22.10
2021,08,13,01,56,22.10
2021,08,13,01,57,22.20
2021,08,13,01,58,22.30
2021,08,13,01,59,22.30
2021,08,13,02,00,22.40
2021,08,13,02,01,22.40
2021,08,13,02,02,22.40
2021,08,13,02,03,22.50
2021,08,13,02,04,22.50
2021,08,13,02,05,22.50
2021,08,13,02,06,22.50
2021,08,13,02,07,22.50
2021,08,13,02,08,22.50
2021,08,13,02,09,22.50
2021,08,13,02,10,22.50
2021,08,13,02,11,22.50
2021,08,13,02,12,22.50
2021,08,13,02,13,22.40
2021,08,13,02,14,22.40
2021,08,13,02,15,22.40
2021,08,13,02,16,22.40
2021,08,13,02,17,22.40
2021,08,13,02,18,22.30
2021,08,13,02,19,22.30
2021,08,13,02,20,22.30
2021,08,13,02,21,22.20
2021,08,13,02,22,22.20
2021,08,13,02,23,22.20
2021,08,13,02,24,22.10
2021,08,13,02,25,22.10
2021,08,13,02,26,22.10
2021,08,13,02,27,22.10
2021,08,13,02,28,22.00
2021,08,13,02,29,22.00
2021,08,13,02,30,22.00
2021,08,13,02,31,21.90
2021,08,13,02,32,21.90
2021,08,13,02,33,21.90
2021,08,13,02,34,21.80
2021,08,13,02,35,21.80
2021,08,13,02,36,21.80
2021,08,13,02,37,21.70
2021,08,13,02,38,21.70
2021,08,13,02,39,21.70
2021,08,13,02,40,21.60
2021,08,13,02,41,21.60
2021,08,13,02,42,21.50
2021,08,13,02,43,21.50
2021,08,13,02,44,21.40
2021,08,13,02,45,21.40
2021,08,13,02,46,21.40
2021,08,13,02,47,21.30
2021,08,13,02,48,21.30
2021,08,13,02,49,21.30
2021,08,13,02,50,21.20
2021,08,13,02,51,21.20
2021,08,13,02,52,21.20
2021,08,13,02,53,21.20
2021,08,13,02,54,21.20
2021,08,13,02,55,21.20
2021,08,13,02,56,21.10
2021,08,13,02,57,21.10
2021,08,13,02,58,21.10
2021,08,13,02,59,21.20
2021,08,13,03,00,21.20
2021,08,13,03,01,21.20
2021,08,13,03,02,21.20
2021,08,13,03,03,21.20
2021,08,13,03,04,21.20
2021,08,13,03,05,21.20
2021,08,13,03,06,21.20
2021,08,13,03,07,21.20
2021,08,13,03,08,21.20
2021,08,13,03,09,21.20
2021,08,13,03,10,21.20
2021,08,13,03,11,21.20
2021,08,13,03,12,21.30
2021,08,13,03,13,21.30
2021,08,13,03,14,21.30
2021,08,13,03,15,21.30
2021,08,13,03,16,21.30
2021,08,13,03,17,21.30
2021,08,13,03,18,21.30
2021,08,13,03,19,21.30
2021,08,13,03,20,21.20
2021,08,13,03,21,21.20
2021,08,13,03,22,21.20
2021,08,13,03,23,21.20
2021,08,13,03,24,21.10
2021,08,13,03,25,21.10
2021,08,13,03,26,21.10
2021,08,13,03,27,21.00
2021,08,13,03,28,21.00
2021,08,13,03,29,21.00
2021,08,13,03,30,20.90
2021,08,13,03,31,20.90
2021,08,13,03,32,20.90
2021,08,13,03,33,20.80
2021,08,13,03,34,20.80
2021,08,13,03,35,20.80
2021,08,13,03,36,20.80
2021,08,13,03,37,20.70
2021,08,13,03,38,20.70
2021,08,13,03,39,20.70
2021,08,13,03,40,20.70
2021,08,13,03,41,20.60
2021,08,13,03,42,20.60
2021,08,13,03,43,20.60
2021,08,13,03,44,20.60
2021,08,13,03,45,20.60
2021,08,13,03,46,20.50
2021,08,13,03,47,20.50
2021,08,13,03,48,20.50
2021,08,13,03,49,20.50
2021,08,13,03,50,20.50
2021,08,13,03,51,20.50
2021,08,13,03,52,20.50
2021,08,13,03,53,20.50
2021,08,13,03,54,20.40
2021,08,13,03,55,20.40
2021,08,13,03,56,20.40
2021,08,13,03,57,20.40
2021,08,13,03,58,20.40
2021,08,13,03,59,20.40
2021,08,13,04,00,20.40
2021,08,13,04,01,20.40
2021,08,13,04,02,20.40
2021,08,13,04,03,20.30
2021,08,13,04,04,20.30
2021,08,13,04,05,20.30
2021,08,13,04,06,20.20
2021,08,13,04,07,20.20
2021,08,13,04,08,20.20
2021,08,13,04,09,20.20
2021,08,13,04,10,20.20
2021,08,13,04,11,20.10
2021,08,13,04,12,20.10
2021,08,13,04,13,20.10
2021,08,13,04,14,20.10
2021,08,13,04,15,20.10
2021,08,13,04,16,20.10
2021,08,13,04,17,20.10
2021,08,13,04,18,20.00
2021,08,13,04,19,20.00
2021,08,13,04,20,20.00
2021,08,13,04,21,19.90
2021,08,13,04,22,19.90
2021,08,13,04,23,20.00
2021,08,13,04,24,20.00
2021,08,13,04,25,20.00
2021,08,13,04,26,20.00
2021,08,13,04,27,20.10
2021,08,13,04,28,20.10
2021,08,13,04,29,20.10
2021,08,13,04,30,20.10
2021,08,13,04,31,20.10
2021,08,13,04,32,20.10
2021,08,13,04,33,20.00
2021,08,13,04,34,20.00
2021,08,13,04,35,20.00
2021,08,13,04,36,20.00
2021,08,13,04,37,19.90
2021,08,13,04,38,19.90
2021,08,13,04,39,19.90
2021,08,13,04,40,19.90
2021,08,13,04,41,19.90
2021,08,13,04,42,19.90
2021,08,13,04,43,19.90
2021,08,13,04,44,19.90
2021,08,13,04,45,19.80
2021,08,13,04,46,19.80
2021,08,13,04,47,19.80
2021,08,13,04,48,19.80
2021,08,13,04,49,19.80
2021,08,13,04,50,19.80
2021,08,13,04,51,19.80
2021,08,13,04,52,19.80
2021,08,13,04,53,19.80
2021,08,13,04,54,19.80
2021,08,13,04,55,19.80
2021,08,13,04,56,19.80
2021,08,13,04,57,19.80
2021,08,13,04,58,19.80
2021,08,13,04,59,19.80
2021,08,13,05,00,19.80
2021,08,13,05,01,19.80
2021,08,13,05,02,19.80
2021,08,13,05,03,19.80
2021,08,13,05,04,19.80
2021,08,13,05,05,19.80
2021,08,13,05,06,19.80
2021,08,13,05,07,19.80
2021,08,13,05,08,19.80
2021,08,13,05,09,19.80
2021,08,13,05,10,19.80
2021,08,13,05,11,19.80
2021,08,13,05,12,19.80
2021,08,13,05,13,19.80
2021,08,13,05,14,19.80
2021,08,13,05,15,19.80
2021,08,13,05,16,19.80
2021,08,13,05,17,19.80
2021,08,13,05,18,19.80
2021,08,13,05,19,19.70
2021,08,13,05,20,19.70
2021,08,13,05,21,19.70
2021,08,13,05,22,19.70
2021,08,13,05,23,19.70
2021,08,13,05,24,19.70
2021,08,13,05,25,19.80
2021,08,13,05,26,19.80
2021,08,13,05,27,19.80
2021,08,13,05,28,19.80
2021,08,13,05,29,19.80
2021,08,13,05,30,19.80
2021,08,13,05,31,19.80
2021,08,13,05,32,19.90
2021,08,13,05,33,19.90
2021,08,13,05,34,19.90
2021,08,13,05,35,19.90
2021,08,13,05,36,19.90
2021,08,13,05,37,19.90
2021,08,13,05,38,20.00
2021,08,13,05,39,20.00
2021,08,13,05,40,20.00
2021,08,13,05,41,20.10
2021,08,13,05,42,20.10
2021,08,13,05,43,20.10
2021,08,13,05,44,20.10
2021,08,13,05,45,20.10
2021,08,13,05,46,20.10
2021,08,13,05,47,20.10
2021,08,13,05,48,20.10
2021,08,13,05,49,20.10
2021,08,13,05,50,20.10
2021,08,13,05,51,20.10
2021,08,13,05,52,20.10
2021,08,13,05,53,20.10
2021,08,13,05,54,20.10
2021,08,13,05,55,20.10
2021,08,13,05,56,20.10
2021,08,13,05,57,20.10
2021,08,13,05,58,20.10
2021,08,13,05,59,20.20
2021,08,13,06,00,20.20
2021,08,13,06,01,20.20
2021,08,13,06,02,20.20
2021,08,13,06,03,20.20
2021,08,13,06,04,20.10
2021,08,13,06,05,20.10
2021,08,13,06,06,20.10
2021,08,13,06,07,20.10
2021,08,13,06,08,20.00
2021,08,13,06,09,20.00
2021,08,13,06,10,19.90
2021,08,13,06,11,19.90
2021,08,13,06,12,19.80
2021,08,13,06,13,19.80
2021,08,13,06,14,19.80
2021,08,13,06,15,19.80
2021,08,13,06,16,19.80
2021,08,13,06,17,19.80
2021,08,13,06,18,19.80
2021,08,13,06,19,19.80
2021,08,13,06,20,19.80
2021,08,13,06,21,19.80
2021,08,13,06,22,19.80
2021,08,13,06,23,19.80
2021,08,13,06,24,19.80
2021,08,13,06,25,19.80
2021,08,13,06,26,19.80
2021,08,13,06,27,19.90
2021,08,13,06,28,19.90
2021,08,13,06,29,19.90
2021,08,13,06,30,19.90
2021,08,13,06,31,19.90
2021,08,13,06,32,20.00
2021,08,13,06,33,20.00
2021,08,13,06,34,20.10
2021,08,13,06,35,20.10
2021,08,13,06,36,20.10
2021,08,13,06,37,20.10
2021,08,13,06,38,20.20
2021,08,13,06,39,20.20
2021,08,13,06,40,20.30
2021,08,13,06,41,20.30
2021,08,13,06,42,20.40
2021,08,13,06,43,20.40
2021,08,13,06,44,20.50
2021,08,13,06,45,20.50
2021,08,13,06,46,20.50
2021,08,13,06,47,20.50
2021,08,13,06,48,20.50
2021,08,13,06,49,20.50
2021,08,13,06,50,20.50
2021,08,13,06,51,20.50
2021,08,13,06,52,20.50
2021,08,13,06,53,20.50
2021,08,13,06,54,20.40
2021,08,13,06,55,20.40
2021,08,13,06,56,20.40
2021,08,13,06,57,20.40
2021,08,13,06,58,20.40
2021,08,13,06,59,20.40
2021,08,13,07,00,20.30
2021,08,13,07,01,20.30
2021,08,13,07,02,20.30
2021,08,13,07,03,20.30
2021,08,13,07,04,20.30
2021,08,13,07,05,20.30
2021,08,13,07,06,20.20
2021,08,13,07,07,20.20
2021,08,13,07,08,20.20
2021,08,13,07,09,20.20
2021,08,13,07,10,20.20
2021,08,13,07,11,20.10
2021,08,13,07,12,20.10
2021,08,13,07,13,20.10
2021,08,13,07,14,20.00
2021,08,13,07,15,20.00
2021,08,13,07,16,19.90
2021,08,13,07,17,19.90
2021,08,13,07,18,19.90
2021,08,13,07,19,19.90
2021,08,13,07,20,19.80
2021,08,13,07,21,19.80
2021,08,13,07,22,19.80
2021,08,13,07,23,19.80
2021,08,13,07,24,19.80
2021,08,13,07,25,19.80
2021,08,13,07,26,19.80
2021,08,13,07,27,19.80
2021,08,13,07,28,19.80
2021,08,13,07,29,19.80
2021,08,13,07,30,19.80
2021,08,13,07,31,19.90
2021,08,13,07,32,19.90
2021,08,13,07,33,19.90
2021,08,13,07,34,19.90
2021,08,13,07,35,20.00
2021,08,13,07,36,20.00
2021,08,13,07,37,20.00
2021,08,13,07,38,20.00
2021,08,13,07,39,20.10
2021,08,13,07,40,20.10
2021,08,13,07,41,20.10
2021,08,13,07,42,20.10
2021,08,13,07,43,20.10
2021,08,13,07,44,20.10
2021,08,13,07,45,20.20
2021,08,13,07,46,20.20
2021,08,13,07,47,20.20
2021,08,13,07,48,20.20
2021,08,13,07,49,20.20
2021,08,13,07,50,20.20
2021,08,13,07,51,20.20
2021,08,13,07,52,20.20
2021,08,13,07,53,20.30
2021,08,13,07,54,20.30
2021,08,13,07,55,20.30
2021,08,13,07,56,20.30
2021,08,13,07,57,20.30
2021,08,13,07,58,20.30
2021,08,13,07,59,20.40
2021,08,13,08,00,20.40
2021,08,13,08,01,20.50
2021,08,13,08,02,20.50
2021,08,13,08,03,20.60
2021,08,13,08,04,20.70
2021,08,13,08,05,20.80
2021,08,13,08,06,20.90
2021,08,13,08,07,21.00
2021,08,13,08,08,21.10
2021,08,13,08,09,21.10
2021,08,13,08,10,21.20
2021,08,13,08,11,21.20
2021,08,13,08,12,21.20
2021,08,13,08,13,21.30
2021,08,13,08,14,21.30
2021,08,13,08,15,21.30
2021,08,13,08,16,21.40
2021,08,13,08,17,21.40
2021,08,13,08,18,21.40
2021,08,13,08,19,21.50
2021,08,13,08,20,21.50
2021,08,13,08,21,21.60
2021,08,13,08,22,21.60
2021,08,13,08,23,21.70
2021,08,13,08,24,21.70
2021,08,13,08,25,21.70
2021,08,13,08,26,21.70
2021,08,13,08,27,21.70
2021,08,13,08,28,21.70
2021,08,13,08,29,21.70
2021,08,13,08,30,21.70
2021,08,13,08,31,21.60
2021,08,13,08,32,21.60
2021,08,13,08,33,21.60
2021,08,13,08,34,21.60
2021,08,13,08,35,21.50
2021,08,13,08,36,21.50
2021,08,13,08,37,21.50
2021,08,13,08,38,21.50
2021,08,13,08,39,21.50
2021,08,13,08,40,21.50
2021,08,13,08,41,21.60
2021,08,13,08,42,21.60
2021,08,13,08,43,21.60
2021,08,13,08,44,21.60
2021,08,13,08,45,21.60
2021,08,13,08,46,21.60
2021,08,13,08,47,21.60
2021,08,13,08,48,21.60
2021,08,13,08,49,21.60
2021,08,13,08,50,21.60
2021,08,13,08,51,21.70
2021,08,13,08,52,21.70
2021,08,13,08,53,21.70
2021,08,13,08,54,21.80
2021,08,13,08,55,21.80
2021,08,13,08,56,21.80
2021,08,13,08,57,21.80
2021,08,13,08,58,21.80
2021,08,13,08,59,21.90
2021,08,13,09,00,21.90
2021,08,13,09,01,22.00
2021,08,13,09,02,22.00
2021,08,13,09,03,22.10
2021,08,13,09,04,22.20
2021,08,13,09,05,22.20
2021,08,13,09,06,22.30
2021,08,13,09,07,22.30
2021,08,13,09,08,22.40
2021,08,13,09,09,22.40
2021,08,13,09,10,22.50
2021,08,13,09,11,22.60
2021,08,13,09,12,22.70
2021,08,13,09,13,22.70
2021,08,13,09,14,22.70
2021,08,13,09,15,22.80
2021,08,13,09,16,22.80
2021,08,13,09,17,22.90
2021,08,13,09,18,22.90
2021,08,13,09,19,23.00
2021,08,13,09,20,23.10
2021,08,13,09,21,23.10
2021,08,13,09,22,23.20
2021,08,13,09,23,23.30
2021,08,13,09,24,23.40
2021,08,13,09,25,23.50
2021,08,13,09,26,23.60
2021,08,13,09,27,23.60
2021,08,13,09,28,23.70
2021,08,13,09,29,23.80
2021,08,13,09,30,23.80
2021,08,13,09,31,23.80
2021,08,13,09,32,23.90
2021,08,13,09,33,23.80
2021,08,13,09,34,23.80
2021,08,13,09,35,23.80
2021,08,13,09,36,23.70
2021,08,13,09,37,23.70
2021,08,13,09,38,23.70
2021,08,13,09,39,23.70
2021,08,13,09,40,23.70
2021,08,13,09,41,23.70
2021,08,13,09,42,23.70
2021,08,13,09,43,23.70
2021,08,13,09,44,23.70
2021,08,13,09,45,23.70
2021,08,13,09,46,23.70
2021,08,13,09,47,23.70
2021,08,13,09,48,23.80
2021,08,13,09,49,23.80
2021,08,13,09,50,23.90
2021,08,13,09,51,24.00
2021,08,13,09,52,24.00
2021,08,13,09,53,24.10
2021,08,13,09,54,24.20
2021,08,13,09,55,24.30
2021,08,13,09,56,24.30
2021,08,13,09,57,24.30
2021,08,13,09,58,24.30
2021,08,13,09,59,24.40
2021,08,13,10,00,24.40
2021,08,13,10,01,24.40
2021,08,13,10,02,24.50
2021,08,13,10,03,24.50
2021,08,13,10,04,24.60
2021,08,13,10,05,24.60
2021,08,13,10,06,24.60
2021,08,13,10,07,24.60
2021,08,13,10,08,24.60
2021,08,13,10,09,24.60
2021,08,13,10,10,24.70
2021,08,13,10,11,24.70
2021,08,13,10,12,24.70
2021,08,13,10,13,24.70
2021,08,13,10,14,24.80
2021,08,13,10,15,24.80
2021,08,13,10,16,24.80
2021,08,13,10,17,24.80
2021,08,13,10,18,24.80
2021,08,13,10,19,24.80
2021,08,13,10,20,24.80
2021,08,13,10,21,24.70
2021,08,13,10,22,24.70
2021,08,13,10,23,24.70
2021,08,13,10,24,24.70
2021,08,13,10,25,24.60
2021,08,13,10,26,24.50
2021,08,13,10,27,24.50
2021,08,13,10,28,24.40
2021,08,13,10,29,24.40
2021,08,13,10,30,24.30
2021,08,13,10,31,24.30
2021,08,13,10,32,24.30
2021,08,13,10,33,24.30
2021,08,13,10,34,24.20
2021,08,13,10,35,24.20
2021,08,13,10,36,24.10
2021,08,13,10,37,24.10
2021,08,13,10,38,24.00
2021,08,13,10,39,24.00
2021,08,13,10,40,23.90
2021,08,13,10,41,23.90
2021,08,13,10,42,23.90
2021,08,13,10,43,23.90
2021,08,13,10,44,23.90
2021,08,13,10,45,24.00
2021,08,13,10,46,24.00
2021,08,13,10,47,24.00
2021,08,13,10,48,24.10
2021,08,13,10,49,24.10
2021,08,13,10,50,24.20
2021,08,13,10,51,24.30
2021,08,13,10,52,24.40
2021,08,13,10,53,24.60
2021,08,13,10,54,24.70
2021,08,13,10,55,24.90
2021,08,13,10,56,25.00
2021,08,13,10,57,25.20
2021,08,13,10,58,25.30
2021,08,13,10,59,25.50
2021,08,13,11,00,25.60
2021,08,13,11,01,25.70
2021,08,13,11,02,25.80
2021,08,13,11,03,26.00
2021,08,13,11,04,26.10
2021,08,13,11,05,26.20
2021,08,13,11,06,26.30
2021,08,13,11,07,26.30
2021,08,13,11,08,26.40
2021,08,13,11,09,26.40
2021,08,13,11,10,26.50
2021,08,13,11,11,26.50
2021,08,13,11,12,26.60
2021,08,13,11,13,26.60
2021,08,13,11,14,26.70
2021,08,13,11,15,26.70
2021,08,13,11,16,26.70
2021,08,13,11,17,26.80
2021,08,13,11,18,26.90
2021,08,13,11,19,26.90
2021,08,13,11,20,27.00
2021,08,13,11,21,27.00
2021,08,13,11,22,27.10
2021,08,13,11,23,27.20
2021,08,13,11,24,27.20
2021,08,13,11,25,27.20
2021,08,13,11,26,27.30
2021,08,13,11,27,27.30
2021,08,13,11,28,27.40
2021,08,13,11,29,27.40
2021,08,13,11,30,27.40
2021,08,13,11,31,27.50
2021,08,13,11,32,27.50
2021,08,13,11,33,27.50
2021,08,13,11,34,27.50
2021,08,13,11,35,27.60
2021,08,13,11,36,27.60
2021,08,13,11,37,27.70
2021,08,13,11,38,27.80
2021,08,13,11,39,27.80
2021,08,13,11,40,27.80
2021,08,13,11,41,27.90
2021,08,13,11,42,27.90
2021,08,13,11,43,28.00
2021,08,13,11,44,28.00
2021,08,13,11,45,28.00
2021,08,13,11,46,28.00
2021,08,13,11,47,28.00
2021,08,13,11,48,28.10
2021,08,13,11,49,28.10
2021,08,13,11,50,28.10
2021,08,13,11,51,28.10
2021,08,13,11,52,28.00
2021,08,13,11,53,27.90
2021,08,13,11,54,27.90
2021,08,13,11,55,27.80
2021,08,13,11,56,27.80
2021,08,13,11,57,27.70
2021,08,13,11,58,27.70
2021,08,13,11,59,27.70
2021,08,13,12,00,27.60
2021,08,13,12,01,27.50
2021,08,13,12,02,27.40
2021,08,13,12,03,27.30
2021,08,13,12,04,27.20
2021,08,13,12,05,27.00
2021,08,13,12,06,26.90
2021,08,13,12,07,26.80
2021,08,13,12,08,26.70
2021,08,13,12,09,26.70
2021,08,13,12,10,26.70
2021,08,13,12,11,26.60
2021,08,13,12,12,26.60
2021,08,13,12,13,26.60
2021,08,13,12,14,26.60
2021,08,13,12,15,26.60
2021,08,13,12,16,26.60
2021,08,13,12,17,26.70
2021,08,13,12,18,26.80
2021,08,13,12,19,26.90
2021,08,13,12,20,27.00
2021,08,13,12,21,27.10
2021,08,13,12,22,27.30
2021,08,13,12,23,27.40
2021,08,13,12,24,27.60
2021,08,13,12,25,27.70
2021,08,13,12,26,27.90
2021,08,13,12,27,28.10
2021,08,13,12,28,28.20
2021,08,13,12,29,28.30
2021,08,13,12,30,28.50
2021,08,13,12,31,28.60
2021,08,13,12,32,28.70
2021,08,13,12,33,28.80
2021,08,13,12,34,28.90
2021,08,13,12,35,29.00
2021,08,13,12,36,29.20
2021,08,13,12,37,29.30
2021,08,13,12,38,29.50
2021,08,13,12,39,29.60
2021,08,13,12,40,29.60
2021,08,13,12,41,29.70
2021,08,13,12,42,29.80
2021,08,13,12,43,29.90
2021,08,13,12,44,30.00
2021,08,13,12,45,30.10
2021,08,13,12,46,30.20
2021,08,13,12,47,30.20
2021,08,13,12,48,30.20
2021,08,13,12,49,30.20
2021,08,13,12,50,30.20
2021,08,13,12,51,30.20
2021,08,13,12,52,30.20
2021,08,13,12,53,30.20
2021,08,13,12,54,30.20
2021,08,13,12,55,30.10
2021,08,13,12,56,30.00
2021,08,13,12,57,30.00
2021,08,13,12,58,30.10
2021,08,13,12,59,30.10
2021,08,13,13,00,30.00
2021,08,13,13,01,30.00
2021,08,13,13,02,29.90
2021,08,13,13,03,29.80
2021,08,13,13,04,29.80
2021,08,13,13,05,29.70
2021,08,13,13,06,29.80
2021,08,13,13,07,29.80
2021,08,13,13,08,29.80
2021,08,13,13,09,29.80
2021,08,13,13,10,29.80
2021,08,13,13,11,29.80
2021,08,13,13,12,29.80
2021,08,13,13,13,29.80
2021,08,13,13,14,29.80
2021,08,13,13,15,29.80
2021,08,13,13,16,29.80
2021,08,13,13,17,29.70
2021,08,13,13,18,29.70
2021,08,13,13,19,29.70
2021,08,13,13,20,29.60
2021,08,13,13,21,29.60
2021,08,13,13,22,29.60
2021,08,13,13,23,29.60
2021,08,13,13,24,29.60
2021,08,13,13,25,29.70
2021,08,13,13,26,29.70
2021,08,13,13,27,29.80
2021,08,13,13,28,29.80
2021,08,13,13,29,29.90
2021,08,13,13,30,29.90
2021,08,13,13,31,30.00
2021,08,13,13,32,30.10
2021,08,13,13,33,30.20
2021,08,13,13,34,30.20
2021,08,13,13,35,30.20
2021,08,13,13,36,30.20
2021,08,13,13,37,30.30
2021,08,13,13,38,30.30
2021,08,13,13,39,30.30
2021,08,13,13,40,30.30
2021,08,13,13,41,30.20
2021,08,13,13,42,30.20
2021,08,13,13,43,30.20
2021,08,13,13,44,30.20
2021,08,13,13,45,30.20
2021,08,13,13,46,30.20
2021,08,13,13,47,30.20
2021,08,13,13,48,30.20
2021,08,13,13,49,30.30
2021,08,13,13,50,30.20
2021,08,13,13,51,30.30
2021,08,13,13,52,30.30
2021,08,13,13,53,30.40
2021,08,13,13,54,30.40
2021,08,13,13,55,30.50
2021,08,13,13,56,30.60
2021,08,13,13,57,30.60
2021,08,13,13,58,30.50
2021,08,13,13,59,30.40
2021,08,13,14,00,30.40
2021,08,13,14,01,30.50
2021,08,13,14,02,30.60
2021,08,13,14,03,30.70
2021,08,13,14,04,30.80
2021,08,13,14,05,30.90
2021,08,13,14,06,31.00
2021,08,13,14,07,31.10
2021,08,13,14,08,31.30
2021,08,13,14,09,31.30
2021,08,13,14,10,31.40
2021,08,13,14,11,31.40
2021,08,13,14,12,31.40
2021,08,13,14,13,31.40
2021,08,13,14,14,31.40
2021,08,13,14,15,31.30
2021,08,13,14,16,31.20
2021,08,13,14,17,31.10
2021,08,13,14,18,31.00
2021,08,13,14,19,30.90
2021,08,13,14,20,30.90
2021,08,13,14,21,30.80
2021,08,13,14,22,30.70
2021,08,13,14,23,30.60
2021,08,13,14,24,30.60
2021,08,13,14,25,30.60
2021,08,13,14,26,30.60
2021,08,13,14,27,30.60
2021,08,13,14,28,30.60
2021,08,13,14,29,30.70
2021,08,13,14,30,30.80
2021,08,13,14,31,30.80
2021,08,13,14,32,30.90
2021,08,13,14,33,30.90
2021,08,13,14,34,31.00
2021,08,13,14,35,31.10
2021,08,13,14,36,31.10
2021,08,13,14,37,31.10
2021,08,13,14,38,31.10
2021,08,13,14,39,31.10
2021,08,13,14,40,31.10
2021,08,13,14,41,31.10
2021,08,13,14,42,31.10
2021,08,13,14,43,31.10
2021,08,13,14,44,31.10
2021,08,13,14,45,31.00
2021,08,13,14,46,31.00
2021,08,13,14,47,31.00
2021,08,13,14,48,31.00
2021,08,13,14,49,31.00
2021,08,13,14,50,31.00
2021,08,13,14,51,31.10
2021,08,13,14,52,31.10
2021,08,13,14,53,31.20
2021,08,13,14,54,31.30
2021,08,13,14,55,31.40
2021,08,13,14,56,31.50
2021,08,13,14,57,31.60
2021,08,13,14,58,31.70
2021,08,13,14,59,31.80
2021,08,13,15,00,31.80
2021,08,13,15,01,31.80
2021,08,13,15,02,31.90
2021,08,13,15,03,31.90
2021,08,13,15,04,32.00
2021,08,13,15,05,32.00
2021,08,13,15,06,32.10
2021,08,13,15,07,32.10
2021,08,13,15,08,32.10
2021,08,13,15,09,32.10
2021,08,13,15,10,32.20
2021,08,13,15,11,32.10
2021,08,13,15,12,32.10
2021,08,13,15,13,32.10
2021,08,13,15,14,32.20
2021,08,13,15,15,32.10
2021,08,13,15,16,32.10
2021,08,13,15,17,32.10
2021,08,13,15,18,32.00
2021,08,13,15,19,32.00
2021,08,13,15,20,32.00
2021,08,13,15,21,31.90
2021,08,13,15,22,31.80
2021,08,13,15,23,31.70
2021,08,13,15,24,31.60
2021,08,13,15,25,31.50
2021,08,13,15,26,31.40
2021,08,13,15,27,31.40
2021,08,13,15,28,31.30
2021,08,13,15,29,31.30
2021,08,13,15,30,31.30
2021,08,13,15,31,31.30
2021,08,13,15,32,31.30
2021,08,13,15,33,31.30
2021,08,13,15,34,31.40
2021,08,13,15,35,31.40
2021,08,13,15,36,31.40
2021,08,13,15,37,31.40
2021,08,13,15,38,31.40
2021,08,13,15,39,31.40
2021,08,13,15,40,31.40
2021,08,13,15,41,31.40
2021,08,13,15,42,31.50
2021,08,13,15,43,31.50
2021,08,13,15,44,31.60
2021,08,13,15,45,31.60
2021,08,13,15,46,31.50
2021,08,13,15,47,31.40
2021,08,13,15,48,31.40
2021,08,13,15,49,31.40
2021,08,13,15,50,31.40
2021,08,13,15,51,31.40
2021,08,13,15,52,31.40
2021,08,13,15,53,31.30
2021,08,13,15,54,31.30
2021,08,13,15,55,31.30
2021,08,13,15,56,31.40
2021,08,13,15,57,31.40
2021,08,13,15,58,31.40
2021,08,13,15,59,31.40
2021,08,13,16,00,31.40
2021,08,13,16,01,31.50
2021,08,13,16,02,31.50
2021,08,13,16,03,31.60
2021,08,13,16,04,31.70
2021,08,13,16,05,31.80
2021,08,13,16,06,31.80
2021,08,13,16,07,31.90
2021,08,13,16,08,31.90
2021,08,13,16,09,31.90
2021,08,13,16,10,31.90
2021,08,13,16,11,31.90
2021,08,13,16,12,31.80
2021,08,13,16,13,31.90
2021,08,13,16,14,31.90
2021,08,13,16,15,31.80
2021,08,13,16,16,31.90
2021,08,13,16,17,31.90
2021,08,13,16,18,31.90
2021,08,13,16,19,31.90
2021,08,13,16,20,31.90
2021,08,13,16,21,31.90
2021,08,13,16,22,31.80
2021,08,13,16,23,31.80
2021,08,13,16,24,31.70
2021,08,13,16,25,31.70
2021,08,13,16,26,31.60
2021,08,13,16,27,31.60
2021,08,13,16,28,31.60
2021,08,13,16,29,31.60
2021,08,13,16,30,31.50
2021,08,13,16,31,31.50
2021,08,13,16,32,31.40
2021,08,13,16,33,31.40
2021,08,13,16,34,31.40
2021,08,13,16,35,31.40
2021,08,13,16,36,31.40
2021,08,13,16,37,31.40
2021,08,13,16,38,31.40
2021,08,13,16,39,31.40
2021,08,13,16,40,31.40
2021,08,13,16,41,31.40
2021,08,13,16,42,31.30
2021,08,13,16,43,31.30
2021,08,13,16,44,31.30
2021,08,13,16,45,31.30
2021,08,13,16,46,31.30
2021,08,13,16,47,31.30
2021,08,13,16,48,31.30
2021,08,13,16,49,31.30
2021,08,13,16,50,31.20
2021,08,13,16,51,31.20
2021,08,13,16,52,31.20
2021,08,13,16,53,31.20
2021,08,13,16,54,31.20
2021,08,13,16,55,31.20
2021,08,13,16,56,31.20
2021,08,13,16,57,31.20
2021,08,13,16,58,31.20
2021,08,13,16,59,31.10
2021,08,13,17,00,31.20
2021,08,13,17,01,31.20
2021,08,13,17,02,31.20
2021,08,13,17,03,31.30
2021,08,13,17,04,31.40
2021,08,13,17,05,31.40
2021,08,13,17,06,31.40
2021,08,13,17,07,31.40
2021,08,13,17,08,31.50
2021,08,13,17,09,31.50
2021,08,13,17,10,31.50
2021,08,13,17,11,31.50
2021,08,13,17,12,31.60
2021,08,13,17,13,31.50
2021,08,13,17,14,31.50
2021,08,13,17,15,31.40
2021,08,13,17,16,31.50
2021,08,13,17,17,31.50
2021,08,13,17,18,31.50
2021,08,13,17,19,31.60